星链-3415 (STARLINK-3415 )

导读 | 星芒AI

STARLINK-3415 是 SpaceX Starlink 项目中的一颗低轨通信卫星,旨在为全球用户提供高速互联网服务。该卫星属于 Starlink 群体部署计划的一部分,通常由猎鹰9号火箭发射入轨。它运行在约 550 公里的高度,采用先进的推进和通信技术,以提高网络覆盖和连接稳定性。Starlink 项目致力于改善偏远地区的网络接入,促进全球数字包容。

基本信息
目录编号:
51472
目录名称:
STARLINK-3415
国际标识:
2022-010S
轨道中心:
EARTH
卫星名称:
星链-3415
卫星全名:
星链-3415 (STARLINK-3415 )
卫星状态:
在轨 (已飞行1416 天)
发射日期:
2022-02-03 UTC
国别 :
美国 (US)
星等 :
--
轨道信息
数据来源 国际轨道数据 AOE轨道数据
星历时间 2025-12-20T12:24:05+0800
7小时前
查看轨道信息
2025-12-19T15:00:00+0800
1天前
查看轨道信息
半长轴 6917.85km 6917.861km
偏心率 0.0001398 0.0001323
轨道倾角 53.218° 53.217°
近地点辐角 88.393° 92.230°
升交点赤经 275.975° 279.979°
平近点角 271.722° 101.535°
近地点 538.745km 538.81km
远地点 540.681km 540.642km
周期 95.437分钟 95.437分钟
每日圈数 15.088501 15.088466
详细信息
固有亮度:
5
最大亮度:
2.5
卫星平台:
Starlink v1.5
覆盖范围:
全球
运营商:
太空探索技术公司
运营商所在国:
美国
制造商(研发单位):
太空探索技术公司
制造商所在国:
美国
使用方式:
暂无
卫星简介
星链(Starlink)计划是由太空探索技术公司(SpaceX)提出的一个巨型低轨卫星互联网星座项目,计划在2019年至2024年间在太空搭建由约1.2万颗卫星组成的“星链”网络,其中1584颗将部署在地球上空550千米处的近地轨道,并从2020年开始工作。该卫星仍在工作。
2D轨道图
3D轨道图
轨道高度分析图
轨道倾角分析图
轨道综合分析图
查看轨道综合分析图